Погода в Бизерте

Тунис     37°16′53″N   9°51′24″E
темп.,
°C
ветер,
м/с
пор.,
м/с
влажн.,
%
обл.,
%
осадки,
мм/ч
давл.,
гПа
погр.,
м
25 июля, вс
вс2501:00+29ююв814435 0.0 1010262
04:00+28ююв69402 0.0 1009132
07:00+28ю57395 0.0 1009120
10:00+36ююв56255 0.0 1009441
13:00+38з242619 0.0 10081068
16:00+35сз443132 0.0 1008463
19:00+29зсз686455 0.0 1010205
22:00+27юз237089 0.0 101253
26 июля, пн
пн2601:00+27юв2263100 0.0 101122
04:00+27ююв5750100 0.0 1009120
07:00+28ю344632 0.0 101193
10:00+35ю233292 0.0 1011552
13:00+36ссв343193 0.0 1010878
16:00+35ссз3335100 0.0 1009572
19:00+31зсз2449100 0.0 1011156
22:00+30ююв8144699 0.0 1012323
27 июля, вт
вт2701:00+29ююв8154435 0.0 1013347
04:00+26з347274 0.0 1014106
07:00+26вюв237320 0.0 1015173
10:00+33юв6931100 0.0 1014460
13:00+37ююв7821100 0.0 10131055
16:00+37юв7824100 0.0 10121305
19:00+33юв812345 0.0 1013334
22:00+28ююв814410 0.0 1014268
28 июля, ср
ср2801:00+27ююв816440 0.0 1013312
04:00+27ююв816370 0.0 1012322
07:00+28ююв713380 0.0 1013313
10:00+34ю710260 0.0 1014581
13:00+37ююв67210 0.0 10131112
16:00+37юв67210 0.0 10121115
19:00+34юв812320 0.0 1012262
22:00+29ююв612380 0.0 1013185
29 июля, чт
чт2901:00+28ююв613390 0.0 1012230
04:00+27ююв511400 0.0 1011171
07:00+28ююв46370 0.0 1012114
10:00+36ююв68190 0.0 1013460
13:00+39ююв56150 0.0 10111026
16:00+40юв66160 0.0 10091028
19:00+36ююв712240 0.0 1010257
22:00+30ю22380 0.0 101111